Total_Precipitation_Accumulation
3.63 3.57 3.52 3.52 3.47 3.39 3.53 3.57 3.45 3.79 3.96 3.53 3.10 2.94 2.99 3.10 3.04 3.05 2.83 2.61 2.56 2.83 3.37 3.75 3.73 3.56 3.36 3.16 3.10 3.08 2.97 2.72 2.52 2.31 2.20 2.28 2.24 2.17 2.13 2.09 2.03 1.95 1.87
3.79 3.87 3.70 3.55 3.31 3.19 3.26 3.39 3.51 3.96 3.94 3.75 3.34 3.08 2.97 2.94 2.77 2.70 2.81 2.97 2.78 2.70 2.94 3.42 3.87 3.92 3.86 3.64 3.39 3.31 3.22 3.15 2.93 2.44 2.17 2.23 2.31 2.29 2.25 2.20 2.05 1.90 1.80
3.58 3.54 3.30 3.13 3.09 3.15 3.35 3.38 3.58 3.76 3.47 3.51 3.35 3.11 2.85 2.62 2.46 2.47 2.66 2.86 2.73 2.71 2.95 3.22 3.55 3.82 4.08 4.25 4.12 3.96 3.63 3.33 3.12 2.76 2.36 2.19 2.15 2.14 2.09 2.08 2.05 1.92 1.76
3.03 3.33 3.10 2.97 3.24 3.25 3.38 3.69 3.87 3.77 3.75 3.79 3.49 3.06 2.78 2.65 2.28 2.20 2.22 2.41 2.63 2.42 2.78 3.10 3.22 3.43 3.94 4.57 4.81 4.74 4.33 3.90 3.58 3.26 2.88 2.56 2.40 2.21 2.00 1.86 1.88 1.83 1.67
2.90 3.25 3.27 3.37 3.38 3.50 3.56 3.37 3.82 3.89 3.85 3.88 3.37 3.11 2.75 2.47 2.30 2.11 2.02 2.01 2.26 2.47 2.61 2.70 2.88 3.10 3.70 4.66 5.12 5.17 5.02 4.55 3.92 3.72 3.56 3.25 3.02 2.67 2.29 2.03 1.90 1.78 1.67
2.97 3.40 3.27 3.26 3.31 3.54 3.65 3.60 3.77 3.83 3.59 3.59 3.20 3.13 2.70 2.20 2.11 2.07 1.89 1.91 2.06 2.11 2.45 2.79 3.09 2.84 3.20 3.90 4.42 4.98 5.32 5.03 4.36 3.98 4.04 3.94 3.77 3.36 2.74 2.36 2.19 2.02 1.87
2.99 3.46 3.23 3.52 3.45 3.48 3.54 3.60 3.76 3.69 3.40 3.59 3.70 3.25 2.61 2.15 2.12 1.89 1.86 1.94 1.99 2.01 2.39 2.86 3.14 3.07 2.80 2.87 3.26 3.85 4.67 5.01 4.74 4.35 4.21 4.19 4.23 3.99 3.34 2.83 2.59 2.33 2.15
3.21 3.24 3.48 3.45 3.50 3.67 3.65 3.63 3.77 3.54 3.18 3.47 3.85 3.90 3.17 2.73 2.23 1.69 1.82 1.98 2.19 2.30 2.39 2.56 2.74 3.02 3.05 3.23 2.93 2.90 3.69 4.60 5.03 4.88 4.54 4.19 4.10 4.00 3.70 3.41 3.04 2.75 2.56
3.46 3.48 3.46 3.40 3.43 3.25 3.35 3.44 3.46 3.47 3.39 3.30 3.60 3.97 3.55 3.08 2.63 1.99 1.86 1.91 2.19 2.51 2.52 2.58 2.64 2.93 3.10 3.57 3.68 3.31 3.15 3.67 4.54 5.28 5.20 4.55 4.03 3.83 3.76 3.66 3.53 3.23 2.93
3.27 3.11 3.06 3.23 3.25 3.04 3.13 2.80 2.97 3.16 3.16 3.00 3.28 3.35 3.38 3.39 3.30 2.59 2.11 1.93 2.07 2.28 2.43 2.38 2.45 2.74 3.08 3.47 3.83 3.61 3.06 2.90 3.38 4.44 5.08 4.97 4.52 4.08 3.77 3.77 4.04 4.02 3.61
3.01 2.68 2.72 2.94 2.92 2.84 2.76 2.67 2.87 2.70 2.61 2.68 2.93 3.14 3.24 3.35 3.22 3.02 2.55 2.49 2.43 2.28 2.23 2.27 2.50 2.71 2.97 3.29 3.74 3.52 3.27 3.03 2.87 3.11 3.77 4.32 4.52 4.41 4.23 4.44 4.90 5.14 4.93
2.75 2.44 2.34 2.55 2.68 2.74 2.71 2.68 2.74 2.61 2.63 2.76 2.78 2.85 3.12 3.15 3.12 3.25 2.78 2.61 2.62 2.34 2.28 2.41 2.46 2.70 2.80 3.01 3.12 3.23 3.15 2.97 2.81 2.77 2.99 3.35 3.69 4.00 4.15 4.46 5.01 5.45 5.67
2.40 2.34 2.36 2.50 2.54 2.60 2.48 2.53 2.58 2.60 2.77 2.84 2.77 2.71 2.83 2.86 2.97 3.25 3.19 2.84 2.71 2.50 2.57 2.49 2.36 2.46 2.44 2.61 2.75 2.81 2.57 2.43 2.33 2.32 2.41 2.59 2.69 3.03 3.36 3.83 4.46 4.98 5.30
2.36 2.47 2.47 2.35 2.30 2.39 2.24 2.52 2.45 2.51 2.76 2.83 2.56 2.86 2.88 2.85 3.13 3.36 3.46 3.55 3.21 2.89 2.81 2.75 2.59 2.39 2.41 2.45 2.50 2.45 2.20 2.14 1.88 1.87 1.95 2.08 2.19 2.36 2.64 2.97 3.55 3.98 4.08
2.40 2.56 2.55 2.47 2.34 2.39 2.47 2.74 2.69 2.63 2.87 2.86 2.87 3.09 3.03 2.94 3.08 3.20 3.41 3.67 3.77 3.37 3.13 3.09 2.91 2.54 2.41 2.42 2.45 2.18 2.23 2.17 1.90 1.79 1.71 1.68 1.78 1.90 1.98 2.21 2.57 2.81 2.97
2.28 2.51 2.67 2.56 2.41 2.42 2.59 2.77 2.75 2.90 3.09 3.13 3.22 3.30 3.25 3.06 3.14 3.18 3.21 3.46 3.81 3.73 3.31 2.93 2.72 2.40 2.25 2.09 2.35 2.13 2.18 2.20 1.99 1.85 1.68 1.59 1.63 1.67 1.67 1.71 1.94 2.18 2.35
2.35 2.42 2.53 2.52 2.43 2.45 2.58 2.65 2.62 2.94 3.10 3.12 3.11 3.12 3.09 3.25 3.23 3.10 3.21 3.39 3.67 3.76 3.34 2.76 2.62 2.57 2.58 2.45 2.45 2.31 2.18 2.15 1.94 1.83 1.67 1.60 1.61 1.63 1.65 1.65 1.70 1.82 1.89
2.36 2.29 2.35 2.36 2.23 2.25 2.48 2.50 2.56 2.87 3.02 2.90 2.93 2.96 2.73 2.81 2.90 2.76 2.91 2.98 3.13 3.40 3.29 2.92 2.84 2.79 2.75 2.64 2.62 2.56 2.31 2.08 1.82 1.82 1.63 1.57 1.60 1.61 1.63 1.63 1.67 1.69 1.80
2.07 2.07 2.09 2.11 2.16 2.32 2.44 2.44 2.47 2.47 2.49 2.57 2.80 2.93 2.71 2.69 2.60 2.61 2.66 2.64 2.71 2.82 3.08 2.98 2.82 2.86 2.79 2.78 2.71 2.50 2.30 2.19 1.82 1.76 1.74 1.64 1.59 1.54 1.53 1.54 1.56 1.67 1.88
1.87 1.93 2.02 2.10 2.17 2.25 2.32 2.42 2.48 2.38 2.35 2.40 2.55 2.62 2.59 2.55 2.47 2.58 2.51 2.53 2.60 2.77 2.93 2.98 2.85 2.93 2.92 2.88 2.92 2.71 2.70 2.52 2.27 1.96 1.91 1.79 1.78 1.74 1.66 1.55 1.50 1.56 1.78
1.94 2.00 2.08 2.08 2.07 2.06 2.00 2.10 2.18 2.20 2.36 2.30 2.19 2.16 2.17 2.22 2.21 2.27 2.11 2.31 2.58 2.74 2.81 2.83 2.83 3.01 3.15 3.19 3.01 2.94 2.98 2.90 2.65 2.29 2.15 1.97 1.91 1.81 1.82 1.79 1.68 1.59 1.60
2.05 2.07 2.02 2.05 2.04 1.75 1.94 2.02 2.03 2.13 2.26 2.26 2.12 1.99 1.88 1.87 1.82 1.86 1.83 1.93 2.23 2.46 2.60 2.75 2.73 2.84 3.05 3.24 3.37 3.34 3.21 3.09 2.98 2.75 2.63 2.52 2.34 2.27 2.16 2.00 1.94 1.80 1.66
2.18 2.12 2.03 2.03 2.05 2.12 2.19 2.03 1.88 1.85 1.94 1.98 1.94 1.91 1.67 1.58 1.77 1.75 1.81 1.79 1.82 1.99 2.17 2.42 2.50 2.44 2.64 2.96 3.27 3.18 3.33 3.39 3.27 3.22 3.22 3.04 2.73 2.50 2.23 2.07 1.97 1.69 1.56
2.36 2.34 2.27 2.19 2.18 2.15 2.15 1.94 1.93 1.82 1.81 1.81 1.83 1.86 1.85 1.77 1.83 1.97 1.94 1.86 1.74 1.72 1.85 1.92 2.01 2.15 2.40 2.77 3.08 3.04 3.12 3.22 3.21 3.17 3.22 3.14 2.80 2.59 2.29 2.13 2.12 1.82 1.55
2.48 2.41 2.35 2.37 2.31 2.31 2.38 2.17 2.18 1.99 1.97 1.98 2.01 2.02 1.99 1.88 2.04 2.01 1.90 1.88 1.82 1.82 1.92 2.02 1.95 2.03 2.28 2.44 2.66 2.77 2.74 2.81 2.71 2.62 2.80 2.98 2.90 2.79 2.57 2.32 2.16 2.01 1.64
2.52 2.53 2.52 2.49 2.47 2.50 2.73 2.55 2.39 2.18 2.17 2.16 2.27 2.26 2.29 2.13 2.13 2.08 1.92 1.93 1.92 1.94 2.07 2.02 1.98 1.92 1.94 2.18 2.46 2.49 2.69 2.91 2.75 2.51 2.27 2.45 2.60 2.84 2.91 2.61 2.35 2.20 2.08